Location: Peebles
(55.6412°N, 3.1714°W)
Time: 23:22:30
(UTC+01:00)

CENTAUR R/B - Pass Details

Date: 20 January 2022
Orbit: 716 x 1471 km, 63.4° (Epoch: 08 May)

Event Time Altitude Azimuth Distance (km) Brightness Sun altitude
Rises 18:10:13 0° 230° (SW) 3,473 6.6 -14.5°
Reaches altitude 10° 18:12:31 10° 231° (SW) 2,625 5.8 -14.9°
Maximum altitude 18:18:43 88° 319° (NW) 1,068 2.7 -15.7°
Enters shadow 18:24:21 19° 52° (NE) 2,490 4.1 -16.5°
